DW0000 Weather Reports


time (UTC)temp
C
wind
direction
speed
KPH
gust
KPH
rain 1hr
cm
rain 24hr
cm
rain mn
cm
humidity
%
barometer
mb
20211205103915 18 24 16.1 32.2 0.00 0.33 0.03 89 1021.1
20211205103414 18 29 9.7 22.5 0.00 0.33 0.03 89 1021.1
20211205102916 18 40 6.4 20.9 0.00 0.33 0.03 89 1021.1
20211205102414 18 44 9.7 29.0 0.00 0.33 0.03 89 1021.0
20211205101915 18 58 12.9 27.4 0.00 0.33 0.03 89 1021.1
20211205100415 18 32 12.9 27.4 0.00 0.36 0.03 89 1021.2
20211205095915 18 59 9.7 24.1 0.00 0.36 0.03 89 1021.2
20211205095415 18 49 11.3 27.4 0.00 0.36 0.03 89 1021.1
20211205094915 18 84 8.0 20.9 0.00 0.36 0.03 88 1021.1
20211205094414 18 68 9.7 22.5 0.00 0.36 0.03 88 1021.1
20211205093915 18 37 6.4 32.2 0.00 0.36 0.03 88 1021.1
20211205093415 18 74 9.7 25.7 0.00 0.36 0.03 88 1021.1
20211205092915 18 59 14.5 27.4 0.00 0.36 0.03 88 1021.1
20211205092414 18 48 16.1 27.4 0.00 0.36 0.03 88 1021.1
20211205091915 18 34 11.3 29.0 0.00 0.36 0.03 88 1021.1
20211205091415 18 34 11.3 29.0 0.00 0.36 0.03 88 1021.0
20211205090414 18 107 4.8 22.5 0.00 0.36 0.03 88 1021.0
20211205085915 18 28 19.3 32.2 0.00 0.36 0.03 87 1020.9
20211205085414 18 28 12.9 24.1 0.00 0.36 0.03 88 1020.9
20211205084915 18 51 11.3 33.8 0.00 0.36 0.03 88 1020.8
20211205083415 18 32 14.5 37.0 0.00 0.36 0.03 87 1020.7
20211205082414 19 29 20.9 32.2 0.00 0.36 0.03 88 1020.8
20211205081915 19 39 12.9 24.1 0.00 0.36 0.03 88 1020.7
20211205081414 19 57 9.7 25.7 0.00 0.36 0.03 87 1020.7
20211205080915 19 31 14.5 32.2 0.00 0.36 0.03 87 1020.6
20211205075915 19 57 11.3 22.5 0.00 0.36 0.03 87 1020.4
20211205075413 19 92 9.7 22.5 0.00 0.36 0.03 86 1020.4
20211205074914 19 88 9.7 27.4 0.00 0.36 0.03 86 1020.5
20211205073914 20 50 11.3 24.1 0.00 0.36 0.03 85 1020.4
20211205073415 20 92 11.3 25.7 0.00 0.36 0.03 85 1020.4
20211205071915 20 68 11.3 27.4 0.00 0.36 0.03 84 1020.2
20211205070915 20 69 8.0 19.3 0.00 0.36 0.03 82 1020.2
20211205070414 20 28 12.9 29.0 0.00 0.36 0.03 81 1020.2
20211205065414 21 45 9.7 20.9 0.00 0.36 0.03 79 1020.1
20211205064915 21 55 11.3 33.8 0.00 0.36 0.03 79 1020.1
20211205064416 21 69 8.0 25.7 0.00 0.36 0.03 79 1020.0
20211205063915 21 44 14.5 25.7 0.00 0.36 0.03 78 1019.9
20211205063414 21 56 14.5 29.0 0.00 0.36 0.03 78 1019.8
20211205062915 21 60 11.3 27.4 0.00 0.36 0.03 78 1019.8
20211205061414 21 50 9.7 25.7 0.00 0.36 0.03 76 1019.6
20211205060915 21 50 8.0 22.5 0.00 0.36 0.03 75 1019.6
20211205060414 21 59 11.3 27.4 0.00 0.36 0.03 75 1019.5
20211205055915 21 25 19.3 38.6 0.00 0.36 0.03 75 1019.4
20211205055414 21 25 24.1 35.4 0.00 0.36 0.03 75 1019.4
20211205054414 22 56 14.5 25.7 0.00 0.36 0.03 76 1019.4
20211205053414 22 26 20.9 40.2 0.00 0.36 0.03 74 1019.3
20211205052915 22 23 11.3 32.2 0.00 0.36 0.03 74 1019.3
20211205052414 22 38 22.5 41.8 0.00 0.36 0.03 74 1019.3
20211205051414 22 41 17.7 48.3 0.00 0.36 0.03 75 1019.2
20211205044915 22 27 9.7 25.7 0.00 0.36 0.03 72 1019.3
20211205044414 22 62 14.5 32.2 0.00 0.36 0.03 73 1019.2
20211205043915 22 57 24.1 40.2 0.00 0.36 0.03 73 1019.2
20211205043413 22 13 20.9 35.4 0.00 0.36 0.03 72 1019.3
20211205042414 23 58 17.7 29.0 0.00 0.36 0.03 70 1019.3
20211205041915 23 30 14.5 24.1 0.00 0.36 0.03 71 1019.3
20211205041414 23 16 14.5 29.0 0.00 0.36 0.03 71 1019.2
20211205040915 23 23 14.5 27.4 0.00 0.36 0.03 69 1019.2
20211205040413 23 72 16.1 32.2 0.00 0.36 0.03 70 1019.2
20211205035414 23 49 11.3 25.7 0.00 0.36 0.03 68 1019.3
20211205034915 23 62 16.1 32.2 0.00 0.36 0.03 69 1019.2
20211205034421 23 31 25.7 41.8 0.00 0.36 0.03 68 1019.3
20211205032915 23 82 4.8 32.2 0.00 0.36 0.03 66 1019.4
20211205032413 23 78 12.9 33.8 0.00 0.36 0.03 65 1019.3
20211205031915 23 22 27.4 41.8 0.00 0.36 0.03 65 1019.3
20211205031414 23 17 20.9 41.8 0.00 0.36 0.03 65 1019.3
20211205030914 23 46 16.1 38.6 0.00 0.36 0.03 65 1019.2
20211205030414 23 84 14.5 25.7 0.00 0.36 0.03 66 1019.1
20211205025915 23 57 14.5 25.7 0.00 0.36 0.03 67 1019.2
20211205024914 23 38 17.7 37.0 0.00 0.36 0.03 68 1019.3
20211205024414 23 46 14.5 32.2 0.00 0.36 0.03 69 1019.2
20211205023914 23 76 11.3 29.0 0.00 0.36 0.03 70 1019.4
20211205023414 23 25 22.5 37.0 0.00 0.36 0.03 70 1019.4
20211205022915 23 18 22.5 45.1 0.00 0.36 0.03 69 1019.5
20211205022413 23 61 9.7 25.7 0.00 0.36 0.03 67 1019.5
20211205021915 23 61 14.5 29.0 0.00 0.36 0.03 70 1019.6
20211205021414 23 79 9.7 35.4 0.00 0.36 0.03 71 1019.6
20211205020915 23 77 14.5 37.0 0.00 0.36 0.03 68 1019.8
20211205020414 23 106 11.3 22.5 0.00 0.36 0.03 69 1019.8
20211205015915 23 77 16.1 37.0 0.00 0.36 0.03 70 1019.8
20211205014914 23 78 14.5 32.2 0.00 0.36 0.03 68 1019.9
20211205014414 23 49 19.3 35.4 0.00 0.36 0.03 70 1019.9
20211205013413 23 53 12.9 32.2 0.00 0.36 0.03 71 1020.2
20211205012916 23 73 14.5 32.2 0.00 0.36 0.03 70 1020.1
20211205012414 23 76 16.1 29.0 0.00 0.36 0.03 69 1020.1
20211205011915 23 58 9.7 29.0 0.00 0.36 0.03 69 1020.2
20211205010914 23 15 9.7 22.5 0.00 0.36 0.03 68 1020.3
20211205010413 23 53 14.5 29.0 0.00 0.36 0.03 69 1020.4
20211205005414 23 56 9.7 27.4 0.00 0.36 0.03 70 1020.3
20211205004917 23 24 11.3 32.2 0.00 0.36 0.03 70 1020.4
20211205003414 22 120 14.5 25.7 0.00 0.36 0.03 74 1020.5
20211205002915 23 52 16.1 32.2 0.00 0.36 0.03 72 1020.6
20211205002413 23 32 11.3 25.7 0.00 0.36 0.03 70 1020.6
20211205001930 23 48 19.3 27.4 0.00 0.36 0.03 72 1020.6
20211205001414 23 99 9.7 24.1 0.00 0.36 0.03 74 1020.7
20211205000915 23 38 14.5 32.2 0.00 0.36 0.03 75 1020.7
20211205000415 23 80 11.3 19.3 0.00 0.36 0.03 73 1020.8
20211204235915 23 100 9.7 22.5 0.00 0.36 0.03 74 1020.8
20211204235413 23 46 8.0 19.3 0.00 0.36 0.03 74 1020.8
20211204234914 23 83 9.7 19.3 0.00 0.36 0.03 71 1020.8
20211204233915 23 67 11.3 22.5 0.00 0.36 0.03 76 1020.7
20211204232914 23 35 11.3 29.0 0.00 0.36 0.03 71 1020.8
20211204231413 22 61 12.9 22.5 0.00 0.36 0.03 71 1020.8
20211204230413 22 63 9.7 19.3 0.00 0.36 0.03 72 1021.0
20211204225915 22 35 12.9 32.2 0.00 0.36 0.03 75 1021.0
20211204225414 22 30 24.1 33.8 0.00 0.36 0.03 73 1021.0
20211204224413 22 40 16.1 29.0 0.00 0.36 0.03 72 1021.0
20211204223914 22 22 22.5 37.0 0.00 0.36 0.03 75 1021.1
20211204223414 22 30 20.9 32.2 0.00 0.36 0.03 74 1021.2
20211204221414 21 61 6.4 16.1 0.00 0.36 0.03 76 1021.2
20211204220915 21 83 8.0 25.7 0.00 0.36 0.03 77 1021.1
20211204215915 22 47 11.3 19.3 0.00 0.36 0.03 76 1021.2
20211204215413 22 19 11.3 24.1 0.00 0.36 0.03 76 1021.1
20211204214914 22 40 11.3 27.4 0.00 0.36 0.03 74 1021.2
20211204214413 22 9 12.9 24.1 0.00 0.36 0.03 73 1021.2
20211204213914 21 64 14.5 25.7 0.00 0.36 0.03 75 1021.1
20211204213414 21 64 17.7 29.0 0.00 0.36 0.03 77 1021.1
20211204212915 21 50 12.9 33.8 0.00 0.36 0.03 76 1021.0
20211204210413 20 72 14.5 29.0 0.03 0.36 0.03 81 1021.1
20211204205913 20 42 16.1 29.0 0.03 0.36 0.03 81 1021.0
20211204205413 19 42 9.7 22.5 0.03 0.36 0.03 83 1021.0
20211204204914 19 63 11.3 25.7 0.03 0.36 0.03 84 1021.0
20211204203915 19 88 11.3 22.5 0.03 0.36 0.03 84 1020.9
20211204202919 19 62 12.9 33.8 0.03 0.36 0.03 84 1021.0
20211204201916 19 80 8.0 19.3 0.00 0.33 0.00 84 1021.0
20211204201414 18 128 9.7 29.0 0.00 0.33 0.00 86 1020.9
20211204200413 18 80 12.9 22.5 0.00 0.33 0.00 86 1020.9
20211204195914 18 87 19.3 32.2 0.00 0.33 0.00 86 1020.9
20211204195413 18 92 8.0 16.1 0.00 0.33 0.00 86 1020.9
20211204194914 18 78 4.8 20.9 0.00 0.33 0.00 87 1020.9
20211204193914 18 78 8.0 27.4 0.00 0.33 0.00 87 1020.8
20211204193413 18 122 9.7 20.9 0.00 0.33 0.00 87 1020.7
20211204192915 18 54 12.9 24.1 0.00 0.33 0.00 87 1020.7
20211204192413 18 34 9.7 25.7 0.00 0.33 0.00 87 1020.5
20211204191914 18 75 8.0 22.5 0.00 0.33 0.00 87 1020.6
20211204190413 18 39 9.7 24.1 0.00 0.33 0.00 87 1020.5
20211204185915 18 122 11.3 22.5 0.00 0.33 0.00 87 1020.4
20211204185413 18 91 8.0 27.4 0.00 0.33 0.00 86 1020.3
20211204184914 18 75 12.9 25.7 0.00 0.33 0.00 87 1020.2
20211204183413 17 73 14.5 22.5 0.00 0.33 0.00 88 1020.1
20211204182915 17 65 6.4 19.3 0.00 0.33 0.00 89 1020.1
20211204122414 18 53 8.0 19.3 0.00 0.33 0.00 96 1021.2
20211204121915 18 112 4.8 19.3 0.00 0.33 0.00 96 1021.2
20211204121414 18 81 8.0 20.9 0.00 0.33 0.00 96 1021.3
20211204120914 18 78 4.8 12.9 0.00 0.33 0.00 96 1021.3
20211204120414 18 66 4.8 14.5 0.00 0.33 0.00 96 1021.2
20211204115915 18 111 3.2 9.7 0.00 0.33 0.00 96 1021.2
20211204115413 18 158 4.8 14.5 0.00 0.33 0.00 96 1021.3
20211204114914 18 172 4.8 14.5 0.00 0.33 0.00 96 1021.3
20211204113414 18 141 3.2 12.9 0.03 0.33 0.00 96 1021.3
20211204111916 18 134 6.4 12.9 0.05 0.33 0.00 97 1021.4
20211204111414 18 58 4.8 19.3 0.05 0.33 0.00 97 1021.4
20211204110414 18 97 6.4 25.7 0.05 0.33 0.00 97 1021.5
20211204105414 18 98 6.4 14.5 0.05 0.33 0.33 97 1021.6
20211204104916 18 114 3.2 9.7 0.05 0.33 0.33 97 1021.7